Location: Poughquag
(41.6090°N, 73.6820°W)
Time: 12:41:21
(UTC-04:00)

S-56A Canister/Altair - Pass Details

Date: 04 June 2020
Orbit: 633 x 2499 km, 38.9° (Epoch: 06 July)

Event Time Altitude Azimuth Distance (km) Brightness Sun altitude
Rises 09:09:07 0° 279° (W) 3,958 10.7 39.8°
Reaches altitude 10° 09:11:35 10° 274° (W) 3,209 10.3 40.3°
Maximum altitude 09:19:23 47° 203° (SSW) 2,058 10.0 41.7°
Drops below altitude 10° 09:30:48 10° 135° (SE) 4,631 12.2 43.9°
Sets 09:35:09 0° 131° (SE) 5,850 12.6 44.7°
